Location: Casilda
(33.0440°S, 61.1680°W)
Time: 01:26:51
(UTC-03:00)

ISS - Pass Details

Date: 08 May 2021
Orbit: 417 x 422 km, 51.6° (Epoch: 12 May)

Event Time Altitude Azimuth Distance (km) Brightness Sun altitude
Rises 18:52:01 0° 217° (SW) 2,393 0.4 -7.5°
Reaches altitude 10° 18:54:19 10° 206° (SSW) 1,522 -0.8 -8.0°
Maximum altitude 18:57:22 30° 142° (SE) 800 -2.8 -8.6°
Enters shadow 19:00:19 10° 80° (E) 1,481 -1.5 -9.2°
